sat.trackr.live / text

‹ back to catalog

STARLINK-3103

NORAD 49177 · 2021-082AZ

PAYLOAD ACTIVE UNKNOWN

§ Identity

Operator
Country
US
Launch date
2021-09-14
Launch site
AFWTR
Launch vehicle
Mass (kg)
RCS (m²)

Purposes: comms

External: N2YO · Heavens-Above · Gunter

§ Orbital elements

Epoch: 2026-05-25T02:23:09.741120Z

Period
96.11 min
Inclination
70.0006°
Eccentricity
0.0003122
Mean motion
14.98324061 rev/d
Perigee alt
569.9 km
Apogee alt
574.2 km
Semi-major
6,950.2 km
B*
1.2852e-4
RAAN
61.8091°
Arg perigee
269.6591°
Mean anomaly
90.4210°
Rev number
25,960

§ Raw data

STARLINK-31031 49177U 21082AZ  26145.09941830  .00001441  00000+0  12852-3 0  99932 49177  70.0006  61.8091 0003122 269.6591  90.4210 14.98324061259600

JSON: /api/v1/satellites/49177 · /tle

For live sub-satellite position, see the globe view (requires WebGL).

§ Visibility from observer

Set your observer location to see the next 7 days of passes ≥ 10°. The values pass through the URL so the page stays shareable.

No JS? Fill the form by hand. The geolocation button needs JavaScript.